ANE96WU LEMD-LEJR

Flight info

Callsign ANE96WU
Flight time 0h 54m
Altitude 31000
Route VTB N10 HIJ
Aircraft CRJX/M-SDFGIRWY/S

Departure

Time 2026-05-04 09:38
Airport Adolfo Suárez Madrid–Barajas Airport (LEMD)

Arrival

Time 2026-05-04 10:32
Airport Jerez Airport (LEJR)
Time Latitude Longitude Altitude Speed Heading
2026-05-04 09:25 40.49705 -3.58937 2020 ft 0 kts 180°
2026-05-04 09:29 40.49721 -3.58937 2018 ft 3 kts 180°
2026-05-04 09:29 40.49739 -3.58940 2020 ft 4 kts 145°
2026-05-04 09:30 40.49745 -3.58961 2020 ft 3 kts 90°
2026-05-04 09:30 40.49745 -3.58982 2016 ft 0 kts 90°
2026-05-04 09:32 40.49745 -3.58981 2016 ft 1 kts 90°
2026-05-04 09:32 40.49745 -3.58954 2016 ft 5 kts 90°
2026-05-04 09:34 40.49735 -3.58158 2005 ft 21 kts 90°
2026-05-04 09:34 40.49735 -3.57949 1997 ft 24 kts 89°
2026-05-04 09:34 40.49732 -3.57722 1989 ft 24 kts 107°
2026-05-04 09:34 40.49617 -3.57683 1985 ft 17 kts 183°
2026-05-04 09:35 40.49507 -3.57683 1986 ft 15 kts 180°
2026-05-04 09:35 40.49402 -3.57683 1986 ft 15 kts 180°
2026-05-04 09:35 40.49302 -3.57682 1986 ft 14 kts 178°
2026-05-04 09:35 40.49254 -3.57601 1985 ft 13 kts 73°
2026-05-04 09:37 40.49514 -3.57454 1983 ft 30 kts
2026-05-04 09:37 40.49978 -3.57458 1988 ft 102 kts 359°
2026-05-04 09:38 40.50891 -3.57465 1994 ft 158 kts 359°
2026-05-04 09:38 40.52099 -3.57483 2313 ft 180 kts 359°
2026-05-04 09:38 40.53341 -3.57479 3186 ft 172 kts 359°
2026-05-04 09:38 40.54504 -3.57516 4053 ft 169 kts 354°
2026-05-04 09:39 40.55774 -3.57548 4334 ft 196 kts 353°
2026-05-04 09:39 40.57102 -3.58161 4588 ft 217 kts 316°
2026-05-04 09:39 40.58295 -3.59512 5024 ft 236 kts 313°
2026-05-04 09:39 40.59494 -3.61074 5449 ft 256 kts 311°
2026-05-04 09:40 40.60796 -3.62856 5903 ft 276 kts 310°
2026-05-04 09:40 40.62149 -3.64695 6539 ft 286 kts 310°
2026-05-04 09:40 40.63542 -3.66595 7195 ft 295 kts 310°
2026-05-04 09:40 40.64658 -3.68849 7843 ft 295 kts 283°
2026-05-04 09:41 40.64696 -3.71489 8700 ft 290 kts 254°
2026-05-04 09:42 40.53932 -3.68291 13609 ft 339 kts 128°
2026-05-04 09:43 40.52585 -3.65741 14212 ft 342 kts 128°
2026-05-04 09:43 40.51205 -3.63167 14809 ft 345 kts 129°
2026-05-04 09:43 40.49774 -3.60631 15392 ft 347 kts 131°
2026-05-04 09:43 40.48300 -3.58101 15962 ft 349 kts 134°
2026-05-04 09:44 40.46452 -3.56122 16481 ft 341 kts 160°
2026-05-04 09:44 40.44212 -3.55223 17064 ft 336 kts 173°
2026-05-04 09:44 40.41906 -3.54820 17656 ft 335 kts 179°
2026-05-04 09:46 40.25423 -3.52852 21149 ft 346 kts 180°
2026-05-04 09:46 40.23022 -3.52523 21619 ft 348 kts 180°
2026-05-04 09:46 40.20614 -3.52191 22048 ft 349 kts 180°
2026-05-04 09:47 40.18191 -3.51860 22460 ft 351 kts 181°
2026-05-04 09:47 40.15751 -3.51525 22885 ft 352 kts 181°
2026-05-04 09:49 39.98442 -3.49178 25240 ft 362 kts 182°
2026-05-04 09:49 39.95926 -3.48835 25484 ft 364 kts 182°
2026-05-04 09:49 39.93398 -3.48491 25783 ft 366 kts 182°
2026-05-04 09:51 39.78050 -3.46427 27371 ft 374 kts 183°
2026-05-04 09:51 39.75510 -3.46522 27570 ft 360 kts 200°
2026-05-04 09:51 39.73269 -3.47805 27743 ft 348 kts 220°
2026-05-04 09:51 39.71649 -3.50088 27965 ft 346 kts 240°
2026-05-04 09:52 39.70871 -3.53039 28188 ft 353 kts 259°
2026-05-04 09:52 39.70653 -3.56224 28374 ft 352 kts 254°
2026-05-04 09:52 39.69677 -3.59090 28557 ft 349 kts 233°
2026-05-04 09:52 39.67886 -3.61206 28764 ft 355 kts 214°
2026-05-04 09:53 39.65672 -3.62656 28957 ft 356 kts 216°
2026-05-04 09:53 39.63842 -3.64742 29138 ft 351 kts 231°
2026-05-04 09:53 39.62272 -3.67177 29353 ft 352 kts 231°
2026-05-04 09:53 39.60611 -3.69519 29546 ft 354 kts 227°
2026-05-04 09:54 39.58867 -3.71780 29739 ft 356 kts 227°
2026-05-04 09:54 39.57117 -3.74055 29907 ft 357 kts 227°
2026-05-04 09:54 39.55365 -3.76341 30105 ft 358 kts 227°
2026-05-04 09:54 39.53611 -3.78632 30263 ft 359 kts 227°
2026-05-04 09:55 39.51853 -3.80926 30409 ft 360 kts 227°
2026-05-04 09:55 39.48303 -3.85548 30627 ft 363 kts 227°
2026-05-04 09:56 39.44724 -3.90205 30864 ft 365 kts 227°
2026-05-04 09:56 39.41106 -3.94897 30978 ft 371 kts 227°
2026-05-04 09:57 39.37444 -3.99643 31025 ft 379 kts 227°
2026-05-04 09:57 39.33677 -4.04518 31014 ft 387 kts 227°
2026-05-04 09:58 39.29839 -4.09479 31019 ft 393 kts 227°
2026-05-04 09:58 39.25933 -4.14514 31012 ft 399 kts 227°
2026-05-04 10:00 39.11962 -4.32470 31027 ft 411 kts 227°
2026-05-04 10:00 39.09933 -4.35072 31047 ft 412 kts 227°
2026-05-04 10:02 38.95718 -4.53212 31022 ft 392 kts 227°
2026-05-04 10:04 38.82257 -4.70282 31039 ft 387 kts 227°
2026-05-04 10:04 38.78423 -4.75131 31010 ft 386 kts 227°
2026-05-04 10:05 38.74611 -4.79953 31027 ft 385 kts 227°
2026-05-04 10:05 38.70799 -4.84761 31029 ft 384 kts 227°
2026-05-04 10:06 38.66999 -4.89554 31016 ft 383 kts 227°
2026-05-04 10:06 38.63232 -4.94290 31015 ft 382 kts 227°
2026-05-04 10:08 38.49624 -5.10397 31029 ft 385 kts 217°
2026-05-04 10:08 38.44928 -5.13754 31033 ft 390 kts 211°
2026-05-04 10:09 38.39995 -5.16662 31037 ft 390 kts 211°
2026-05-04 10:09 38.35100 -5.19651 31039 ft 390 kts 212°
2026-05-04 10:10 38.30219 -5.22675 31040 ft 390 kts 212°
2026-05-04 10:10 38.25370 -5.25676 31037 ft 390 kts 212°
2026-05-04 10:11 38.20454 -5.28715 31027 ft 390 kts 212°
2026-05-04 10:11 38.15602 -5.31708 31036 ft 390 kts 212°
2026-05-04 10:12 38.10714 -5.34718 31053 ft 391 kts 212°
2026-05-04 10:12 38.05812 -5.37739 31006 ft 391 kts 212°
2026-05-04 10:13 38.00917 -5.40747 31022 ft 391 kts 212°
2026-05-04 10:13 37.96027 -5.43744 31038 ft 391 kts 212°
2026-05-04 10:14 37.91132 -5.46743 31031 ft 391 kts 212°
2026-05-04 10:16 37.73999 -5.57200 30678 ft 379 kts 212°
2026-05-04 10:16 37.71655 -5.58623 30227 ft 369 kts 212°
2026-05-04 10:16 37.69399 -5.59993 29730 ft 359 kts 212°
2026-05-04 10:16 37.67168 -5.61352 29071 ft 354 kts 212°
2026-05-04 10:17 37.64958 -5.62691 28385 ft 350 kts 212°
2026-05-04 10:17 37.62776 -5.64016 27731 ft 346 kts 212°
2026-05-04 10:19 37.48089 -5.72907 21990 ft 324 kts 212°
2026-05-04 10:19 37.46064 -5.74130 21145 ft 321 kts 212°
2026-05-04 10:19 37.44058 -5.75337 20346 ft 318 kts 212°
2026-05-04 10:19 37.42050 -5.76493 19567 ft 317 kts 209°
2026-05-04 10:20 37.39976 -5.77464 18801 ft 318 kts 205°
2026-05-04 10:20 37.38583 -5.78031 18332 ft 317 kts 204°
2026-05-04 10:20 37.35780 -5.79120 17255 ft 314 kts 204°
2026-05-04 10:20 37.34400 -5.79655 16754 ft 312 kts 204°
2026-05-04 10:21 37.31660 -5.80730 15723 ft 310 kts 204°
2026-05-04 10:21 37.29617 -5.81554 15008 ft 307 kts 204°
2026-05-04 10:21 37.27593 -5.82381 14318 ft 305 kts 204°
2026-05-04 10:21 37.25587 -5.83198 13632 ft 302 kts 203°
2026-05-04 10:22 37.22262 -5.84558 12396 ft 298 kts 203°
2026-05-04 10:22 37.20318 -5.85354 11685 ft 296 kts 203°
2026-05-04 10:22 37.18375 -5.86150 10994 ft 293 kts 202°
2026-05-04 10:23 37.16438 -5.86941 10304 ft 291 kts 202°
2026-05-04 10:23 37.14517 -5.87727 9585 ft 289 kts 202°
2026-05-04 10:25 37.01497 -5.93069 4461 ft 273 kts 202°
2026-05-04 10:25 36.99725 -5.93895 3713 ft 270 kts 204°
2026-05-04 10:25 36.98010 -5.94721 3319 ft 257 kts 204°
2026-05-04 10:25 36.96707 -5.95352 3171 ft 242 kts 204°
2026-05-04 10:26 36.95188 -5.96074 3068 ft 226 kts 202°
2026-05-04 10:26 36.93777 -5.96658 3069 ft 201 kts 202°
2026-05-04 10:26 36.92532 -5.97193 3058 ft 172 kts 203°
2026-05-04 10:26 36.91501 -5.97663 3010 ft 147 kts 205°
2026-05-04 10:27 36.90596 -5.98086 2952 ft 131 kts 207°
2026-05-04 10:27 36.89818 -5.98505 2870 ft 119 kts 210°
2026-05-04 10:27 36.89076 -5.99019 2911 ft 122 kts 218°
2026-05-04 10:27 36.88350 -5.99537 2856 ft 129 kts 207°
2026-05-04 10:28 36.87424 -5.99949 2710 ft 152 kts 203°
2026-05-04 10:28 36.86539 -6.00318 2547 ft 157 kts 201°
2026-05-04 10:28 36.85469 -6.00728 2256 ft 164 kts 201°
2026-05-04 10:28 36.84446 -6.01149 2006 ft 150 kts 204°
2026-05-04 10:29 36.83471 -6.01613 1792 ft 150 kts 205°
2026-05-04 10:29 36.82499 -6.02069 1578 ft 149 kts 204°
2026-05-04 10:29 36.81539 -6.02542 1415 ft 145 kts 205°
2026-05-04 10:29 36.80612 -6.03012 1216 ft 147 kts 208°
2026-05-04 10:30 36.79652 -6.03480 1076 ft 146 kts 205°
2026-05-04 10:30 36.78689 -6.03939 878 ft 150 kts 203°
2026-05-04 10:30 36.77739 -6.04387 655 ft 140 kts 203°
2026-05-04 10:30 36.76839 -6.04828 420 ft 141 kts 206°
2026-05-04 10:31 36.75949 -6.05280 271 ft 135 kts 205°
2026-05-04 10:31 36.75077 -6.05707 100 ft 129 kts 206°
2026-05-04 10:32 36.74209 -6.06354 84 ft 12 kts 21°
2026-05-04 10:33 36.74287 -6.06316 87 ft 12 kts 21°
2026-05-04 10:33 36.74368 -6.06277 85 ft 13 kts 21°
2026-05-04 10:33 36.74453 -6.06235 84 ft 13 kts 21°
2026-05-04 10:33 36.74543 -6.06191 86 ft 14 kts 21°
2026-05-04 10:34 36.74635 -6.06147 87 ft 15 kts 21°
2026-05-04 10:34 36.74732 -6.06116 83 ft 14 kts 339°
2026-05-04 10:34 36.74772 -6.06210 83 ft 12 kts 293°
2026-05-04 10:34 36.74830 -6.06269 85 ft 11 kts
2026-05-04 10:35 36.74867 -6.06269 84 ft 2 kts 308°
2026-05-04 10:35 36.74877 -6.06310 84 ft 7 kts 288°
2026-05-04 10:35 36.74887 -6.06341 83 ft 1 kts 292°